[[{"header":{"parameterUnit":"m.s-1","parameterCategory":1,"la1":30.2991,"la2":30.254,"lo1":-89.0895,"lo2":-89.0444,"dy":0.0017,"dx":0.0017,"nx":28,"ny":28,"refTime":"2024-05-11T21:00:00:Z","depth":0,"parameterNumber":2,"parameterNumberName":"U-component_of_WINDS"},"data":[0,0,0,0,0,0,0,0,0,0,0,0,0,0,0,0,0,0,0,0,0,0,0,0,0,0,0,0,0,0,0,0,0,0,0,0,0,0,0,0,0,0,0,0,0,0,0,0,0,0,0,0,0,0,0,0,0,0,-7.4835,-7.4836,0,-7.4926,-7.4927,-7.4928,-7.486,-7.4857,-7.4855,-7.4852,-7.494,-7.4945,-7.495,0,0,0,0,0,0,0,0,0,0,0,0,0,-7.4598,-7.4603,-7.4835,-7.4836,-7.4838,-7.4926,-7.4928,-7.4929,-7.4861,-7.4857,-7.4854,-7.485,-7.4938,-7.4944,-7.495,0,0,0,0,0,0,0,0,0,0,0,0,0,-7.4696,-7.4604,-7.4835,-7.4815,-7.4814,-7.4926,-7.4928,-7.4929,-7.4862,-7.4857,-7.4853,-7.4849,-7.4936,-7.4944,-7.4951,-7.5087,0,0,-7.4975,-7.4978,0,0,0,0,0,0,0,0,-7.4691,-7.4705,-7.4816,-7.4816,-7.4815,-7.4878,-7.4876,-7.4982,-7.4863,-7.4843,-7.4852,-7.4847,-7.4922,-7.4931,-7.4958,-7.5091,-7.5095,-7.4975,-7.498,-7.4983,-7.4985,0,0,0,0,0,0,0,-7.4684,-7.4701,-7.4871,-7.4818,-7.4817,-7.4799,-7.4808,-7.4896,-7.4906,-7.4845,-7.484,-7.4852,-7.4921,-7.495,-7.4959,-7.5096,-7.4975,-7.4982,-7.4987,-7.499,-7.5345,-7.5349,0,0,0,0,0,0,-7.468,-7.4695,-7.4868,-7.4874,-7.4741,-7.4807,-7.4817,-7.4862,-7.4905,-7.4908,-7.4856,-7.4848,-7.494,-7.495,-7.4962,-7.5122,-7.4983,-7.499,-7.4995,-7.534,-7.5346,-7.5351,0,0,0,0,0,0,-7.4675,-7.4696,-7.4865,-7.4784,-7.4804,-7.4816,-7.4867,-7.4866,-7.4895,-7.4914,-7.4915,-7.4884,-7.4936,-7.4951,-7.5057,-7.5124,-7.4994,-7.5001,-7.5334,-7.5342,-7.5348,-7.5444,0,0,0,0,0,0,-7.4668,-7.4695,-7.4747,-7.4785,-7.4808,-7.4959,-7.4871,-7.4871,-7.4909,-7.4901,-7.494,-7.4943,-7.4934,-7.5046,-7.5064,-7.5132,-7.5007,-7.5328,-7.5337,-7.5346,-7.5434,-7.5453,-7.5469,0,0,0,0,0,-7.466,-7.477,-7.475,-7.4771,-7.4875,-7.4963,-7.4976,-7.4965,-7.4915,-7.4967,-7.4979,-7.4941,-7.5115,-7.5057,-7.5077,-7.5148,-7.5324,-7.5335,-7.5345,-7.5426,-7.5449,-7.5469,0,0,0,0,0,0,-7.4737,-7.4774,-7.4753,-7.4878,-7.4918,-7.4951,-7.5016,-7.499,-7.5044,-7.5033,-7.5017,-7.5026,-7.5136,-7.5154,-7.5089,-7.5282,-7.5211,-7.5226,-7.5266,-7.5288,-7.5305,-7.5296,-7.5013,0,0,0,0,0,-7.4769,-7.4839,-7.4867,-7.4975,-7.4997,-7.5004,-7.5042,-7.5031,-7.5071,-7.5086,-7.5106,-7.5145,-7.5208,-7.5249,-7.5309,-7.5439,-7.5444,-7.5498,-7.5515,-7.5529,-7.5541,-7.5609,-7.5632,-7.5387,-7.5387,-7.5386,0,0,-7.4834,-7.4863,-7.4908,-7.4991,-7.5021,-7.5092,-7.5018,-7.5097,-7.5149,-7.5098,-7.5197,-7.5214,-7.5257,-7.5374,-7.5427,-7.5392,-7.5611,-7.5543,-7.5555,-7.5559,-7.5622,-7.5646,-7.5666,-7.5394,-7.5393,-7.5392,0,0,-7.4989,-7.502,-7.5112,-7.5144,-7.519,-7.5195,-7.5217,-7.5255,-7.5264,-7.5366,-7.5329,-7.539,-7.55,-7.5531,-7.5561,-7.5731,-7.5697,-7.5751,-7.584,-7.5906,-7.5925,-7.5942,-7.5999,-7.602,-7.5764,-7.5764,-7.5764,0,-7.5063,-7.5171,-7.5162,-7.5244,-7.528,-7.5241,-7.5332,-7.5364,-7.5427,-7.5452,-7.5413,-7.555,-7.5576,-7.5699,-7.574,-7.5768,-7.579,-7.5743,-7.5924,-7.5941,-7.5956,-7.601,-7.6032,-7.577,-7.5769,-7.5769,-7.5768,0,-7.5259,-7.5334,-7.5403,-7.5466,-7.5511,-7.5597,-7.56,-7.5647,-7.5633,-7.5641,-7.5744,-7.5775,-7.5838,-7.5868,-7.5855,-7.5989,-7.5966,-7.5926,-7.5853,-7.5986,-7.6036,-7.6057,-7.5779,-7.5776,-7.5775,-7.5773,0,0,-7.5459,-7.5519,-7.5544,-7.5572,-7.5622,-7.5679,-7.5764,-7.5828,-7.5867,-7.5913,-7.5981,-7.6077,-7.604,-7.6075,-7.6065,-7.6124,-7.6252,-7.6076,-7.6077,-7.6104,-7.6399,-7.6426,-7.645,-7.6233,-7.6237,-7.624,-7.6395,0,-7.5614,-7.5762,-7.5757,-7.5895,-7.5962,-7.5928,-7.6001,-7.6039,-7.605,-7.6108,-7.6119,-7.6186,-7.6135,-7.6155,-7.6212,-7.6225,-7.6311,-7.6214,-7.6293,-7.6296,-7.6278,-7.6477,-7.6505,-7.6649,-7.6415,-7.6418,-7.642,0,-7.5812,-7.5866,-7.6011,-7.605,-7.6079,-7.6145,-7.6203,-7.6261,-7.6302,-7.6306,-7.6346,-7.6328,-7.6412,-7.6342,-7.6456,-7.639,-7.6423,-7.6435,-7.644,-7.6442,-7.6362,-7.6481,-7.6695,-7.6715,-7.6452,-7.645,-7.6447,0,-7.594,-7.6049,-7.6149,-7.6174,-7.6224,-7.6271,-7.6294,-7.6332,-7.6371,-7.6422,-7.6447,-7.6507,-7.6539,-7.6586,-7.6583,-7.6533,-7.6698,-7.6628,-7.6701,-7.6701,-7.6733,-7.673,-7.695,-7.6762,-7.6762,-7.6762,-7.6761,0,-7.6109,-7.6198,-7.6206,-7.6267,-7.6365,-7.636,-7.6457,-7.6475,-7.6509,-7.6572,-7.6547,-7.6605,-7.6601,-7.6661,-7.666,-7.6753,-7.6769,-7.6772,-7.6769,-7.6771,-7.677,-7.6789,-7.6777,-7.6767,-7.6766,-7.6765,-7.6764,0,-7.6266,-7.6276,-7.6381,-7.6421,-7.6433,-7.6503,-7.6536,-7.6593,-7.6603,-7.6683,-7.6701,-7.6716,-7.6785,-7.6789,-7.6868,-7.6868,-7.698,-7.6969,-7.6965,-7.6961,-7.7032,-7.7024,-7.7268,-7.7299,-7.7095,-7.7097,-7.7099,0,-7.6371,-7.6438,-7.6486,-7.6527,-7.6553,-7.6619,-7.6659,-7.6657,-7.67,-7.6754,-7.6804,-7.6871,-7.6923,-7.7035,-7.7052,-7.7112,-7.7099,-7.7181,-7.7108,-7.7107,-7.7096,-7.709,-7.7095,-7.7194,-7.7196,-7.7198,-7.7199,0,-7.6556,-7.6557,-7.6617,-7.6679,-7.6728,-7.6776,-7.6821,-7.6856,-7.6859,-7.6908,-7.6979,-7.702,-7.7102,-7.7167,-7.7227,-7.7248,-7.7223,-7.7223,-7.7242,-7.7242,-7.7236,-7.7236,-7.6999,-7.7216,-7.7214,-7.7213,-7.7212,-7.7212,-7.6687,-7.6744,-7.6787,-7.6854,-7.6888,-7.6931,-7.6986,-7.7004,-7.7064,-7.713,-7.7126,-7.7204,-7.7244,-7.7322,-7.7349,-7.7408,-7.738,-7.7409,-7.7415,-7.7421,-7.7426,-7.7231,-7.742,-7.7419,-7.7419,-7.7418,-7.7418,0,-7.6866,-7.6893,-7.6955,-7.7019,-7.7071,-7.7048,-7.7096,-7.7141,-7.721,-7.7251,-7.7304,-7.7385,-7.7449,-7.7473,-7.7535,-7.7578,-7.7568,-7.7594,-7.7588,-7.7593,-7.745,-7.7425,-7.7601,-7.7601,-7.7601,-7.7601,-7.7601,-7.7601,-7.6966,-7.7061,-7.7069,-7.7181,-7.7206,-7.7283,-7.7312,-7.7351,-7.7383,-7.7475,-7.7529,-7.7545,-7.7578,-7.7643,-7.77,-7.7705,-7.7727,-7.7757,-7.7757,-7.7622,-7.7603,-7.7586,-7.7562,-7.7763,-7.7764,-7.7895,-7.7896,-7.7897]},{"header":{"parameterUnit":"m.s-1","parameterCategory":1,"la1":30.2991,"la2":30.254,"lo1":-89.0895,"lo2":-89.0444,"dy":0.0017,"dx":0.0017,"nx":28,"ny":28,"refTime":"2024-05-11T21:00:00:Z","depth":0,"parameterNumber":3,"parameterNumberName":"V-component_of_WINDS"},"data":[0,0,0,0,0,0,0,0,0,0,0,0,0,0,0,0,0,0,0,0,0,0,0,0,0,0,0,0,0,0,0,0,0,0,0,0,0,0,0,0,0,0,0,0,0,0,0,0,0,0,0,0,0,0,0,0,0,0,4.0623,4.0624,0,4.0645,4.0645,4.0646,4.0629,4.0628,4.0627,4.0627,4.0646,4.0648,4.0649,0,0,0,0,0,0,0,0,0,0,0,0,0,4.0565,4.0567,4.0623,4.0624,4.0624,4.0645,4.0646,4.0646,4.0629,4.0628,4.0627,4.0626,4.0646,4.0647,4.0649,0,0,0,0,0,0,0,0,0,0,0,0,0,4.0589,4.0567,4.0623,4.0618,4.0618,4.0645,4.0646,4.0646,4.0629,4.0628,4.0627,4.0626,4.0645,4.0647,4.0649,4.0682,0,0,4.0654,4.0655,0,0,0,0,0,0,0,0,4.0588,4.0591,4.0619,4.0619,4.0618,4.0633,4.0632,4.0658,4.0629,4.0625,4.0627,4.0625,4.0643,4.0645,4.0651,4.0683,4.0683,4.0655,4.0656,4.0657,4.0657,0,0,0,0,0,0,0,4.0586,4.059,4.0632,4.0619,4.0619,4.0614,4.0616,4.0637,4.0639,4.0625,4.0624,4.0627,4.0642,4.0649,4.0651,4.0684,4.0655,4.0656,4.0657,4.0658,4.0744,4.0745,0,0,0,0,0,0,4.0585,4.0589,4.0631,4.0633,4.06,4.0616,4.0619,4.0629,4.0639,4.064,4.0628,4.0626,4.0647,4.0649,4.0652,4.0691,4.0656,4.0658,4.0659,4.0743,4.0744,4.0745,0,0,0,0,0,0,4.0584,4.0589,4.063,4.0611,4.0615,4.0618,4.0631,4.063,4.0637,4.0641,4.0641,4.0635,4.0646,4.0649,4.0675,4.0691,4.0659,4.0661,4.0741,4.0743,4.0745,4.0769,0,0,0,0,0,0,4.0583,4.0589,4.0602,4.0611,4.0617,4.0653,4.0632,4.0632,4.0641,4.0639,4.0648,4.0648,4.0645,4.0672,4.0677,4.0693,4.0662,4.074,4.0742,4.0744,4.0766,4.0771,4.0775,0,0,0,0,0,4.0581,4.0607,4.0602,4.0607,4.0633,4.0654,4.0657,4.0654,4.0642,4.0655,4.0658,4.0648,4.0689,4.0675,4.068,4.0697,4.0739,4.0741,4.0744,4.0764,4.077,4.0775,0,0,0,0,0,0,4.0597,4.0608,4.0603,4.0633,4.0643,4.0651,4.0667,4.0661,4.0673,4.0671,4.0666,4.0668,4.0695,4.0699,4.0683,4.073,4.0712,4.0716,4.0726,4.0731,4.0735,4.0733,4.0664,0,0,0,0,0,4.0605,4.0623,4.063,4.0656,4.0662,4.0664,4.0673,4.067,4.068,4.0684,4.0688,4.0697,4.0712,4.0722,4.0736,4.0768,4.0769,4.0782,4.0786,4.079,4.0793,4.0809,4.0815,4.0754,4.0754,4.0754,0,0,4.062,4.0628,4.0639,4.066,4.0667,4.0685,4.0667,4.0686,4.0699,4.0686,4.071,4.0714,4.0724,4.0753,4.0766,4.0757,4.081,4.0793,4.0796,4.0797,4.0813,4.0819,4.0824,4.0756,4.0756,4.0756,0,0,4.0656,4.0664,4.0687,4.0695,4.0707,4.0709,4.0715,4.0724,4.0727,4.0751,4.0743,4.0758,4.0784,4.0791,4.0799,4.0841,4.0832,4.0845,4.0867,4.0884,4.0888,4.0892,4.0907,4.0912,4.0848,4.0849,4.0849,0,4.0673,4.07,4.0699,4.0719,4.0728,4.072,4.0742,4.075,4.0766,4.0772,4.0763,4.0796,4.0802,4.0833,4.0843,4.085,4.0855,4.0843,4.0888,4.0892,4.0896,4.0909,4.0915,4.085,4.085,4.085,4.085,0,4.0719,4.0738,4.0755,4.0772,4.0784,4.0805,4.0807,4.0818,4.0816,4.0818,4.0844,4.0851,4.0867,4.0874,4.0871,4.0904,4.0898,4.0889,4.087,4.0903,4.0916,4.0921,4.0852,4.0852,4.0851,4.0851,0,0,4.0764,4.0782,4.0788,4.0796,4.081,4.0824,4.0846,4.0862,4.0872,4.0884,4.0901,4.0925,4.0916,4.0925,4.0922,4.0937,4.0969,4.0926,4.0926,4.0932,4.1005,4.1012,4.1018,4.0964,4.0965,4.0966,4.1004,0,4.08,4.0838,4.0839,4.0873,4.0891,4.0884,4.0902,4.0913,4.0916,4.0931,4.0935,4.0951,4.0939,4.0944,4.0959,4.0962,4.0983,4.096,4.0979,4.098,4.0975,4.1024,4.103,4.1066,4.1009,4.101,4.1011,0,4.0847,4.0862,4.0898,4.0911,4.0918,4.0935,4.095,4.0965,4.0977,4.0979,4.0989,4.0985,4.1007,4.099,4.1018,4.1002,4.1011,4.1014,4.1015,4.1015,4.0996,4.1024,4.1077,4.1082,4.1018,4.1018,4.1017,0,4.0875,4.0904,4.093,4.0937,4.0952,4.0964,4.0971,4.0982,4.0992,4.1006,4.1013,4.1029,4.1037,4.1049,4.1049,4.1037,4.1079,4.1062,4.1079,4.1079,4.1087,4.1086,4.114,4.1095,4.1095,4.1095,4.1094,0,4.0914,4.0936,4.0943,4.0958,4.0983,4.0984,4.1009,4.1015,4.1025,4.1041,4.1036,4.1051,4.1052,4.1067,4.1068,4.1092,4.1096,4.1097,4.1096,4.1096,4.1096,4.11,4.1097,4.1096,4.1096,4.1095,4.1095,0,4.0948,4.0954,4.0981,4.0995,4.0999,4.1016,4.1027,4.1042,4.1046,4.1067,4.1072,4.1077,4.1096,4.1098,4.1119,4.1119,4.1147,4.1145,4.1143,4.1142,4.116,4.1157,4.1217,4.1225,4.1176,4.1176,4.1177,0,4.0972,4.099,4.1005,4.1017,4.1025,4.1043,4.1054,4.1056,4.1068,4.1083,4.1096,4.1114,4.1128,4.1157,4.1163,4.1179,4.1176,4.1196,4.1178,4.1178,4.1175,4.1173,4.1175,4.1199,4.1199,4.12,4.12,0,4.1014,4.1016,4.1033,4.1051,4.1065,4.1079,4.1092,4.1101,4.1105,4.1119,4.1138,4.1149,4.1171,4.1189,4.1205,4.1211,4.1206,4.1206,4.1211,4.121,4.1208,4.1208,4.1151,4.1204,4.1204,4.1203,4.1203,4.1203,4.1043,4.1058,4.1072,4.1091,4.1102,4.1115,4.113,4.1136,4.1153,4.1172,4.1172,4.1193,4.1205,4.1227,4.1234,4.125,4.1243,4.125,4.1252,4.1253,4.1255,4.1207,4.1253,4.1253,4.1253,4.1253,4.1253,0,4.1083,4.1093,4.1111,4.113,4.1145,4.1141,4.1156,4.1168,4.1187,4.12,4.1215,4.1237,4.1254,4.1262,4.1279,4.129,4.1289,4.1295,4.1293,4.1294,4.126,4.1254,4.1296,4.1296,4.1296,4.1296,4.1296,4.1296,4.1106,4.1132,4.1136,4.1167,4.1176,4.1198,4.1206,4.1218,4.1228,4.1254,4.1269,4.1274,4.1285,4.1303,4.1319,4.1321,4.1326,4.1333,4.1334,4.1301,4.1297,4.1293,4.1287,4.1335,4.1335,4.1367,4.1367,4.1367]}]]